Regional Weather Roundup
Issued by NWS

Home | Current Version | Previous Version | Text Only | Print | Product List | Glossary Off
Versions: 1 2 3 4 5 6 7 8 9 10 11 12 13 14 15 16 17 18 19 20 21 22 23 24 25 26 27 28 29 30 31 32 33 34 35 36 37 38 39 40 41 42 43 44 45 46 47 48 49 50

000
ASUS43 KFSD 260802
RWRSD

WEATHER ROUNDUP FOR SOUTH DAKOTA
NATIONAL WEATHER SERVICE SIOUX FALLS SD
200 AM CST SUN FEB 26 2017

NOTE: "FAIR" INDICATES FEW OR NO CLOUDS BELOW 12,000 FEET WITH NO
SIGNIFICANT WEATHER AND/OR OBSTRUCTIONS TO VISIBILITY.


SDZ001>005-009-010-012>017-260900-
NORTHWEST AND NORTH CENTRAL SOUTH DAKOTA

CITY           SKY/WX    TMP DP  RH WIND       PRES   REMARKS
BUFFALO          N/A     16  12  84 W12       29.59F WCI   3
FAITH            N/A     21  19  92 W12       29.69S WCI   9
MOBRIDGE       PTCLDY    25  19  78 NW8       29.67R WCI  16
$$

SDZ012>016-024>037-041>051-057-063-072>074-260900-
SOUTHWEST AND SOUTH CENTRAL SOUTH DAKOTA

CITY           SKY/WX    TMP DP  RH WIND       PRES   REMARKS
RAPID CTY ARPT PTCLDY    16   9  74 NW8       29.72R WCI   5
PIERRE         PTCLDY    25  21  85 W9        29.72S WCI  15
CUSTER         CLEAR     14   3  61 NW7       29.64R WCI   4
ELLSWORTH AFB  CLEAR     16  10  76 W7        29.71S WCI   6
PHILIP         CLEAR     18  15  88 W6        29.75R WCI  10
PINE RIDGE     CLEAR     12   5  73 SW9       29.77S WCI   0
SPEARFISH      FAIR      23  10  58 W13       29.68S WCI  11
WINNER         FAIR      22  12  65 SW10      29.74F WCI  11
$$

SDZ004>011-016>023-039-040-260900-
NORTHEAST SOUTH DAKOTA

CITY           SKY/WX    TMP DP  RH WIND       PRES   REMARKS
ABERDEEN       CLOUDY    24  21  88 SW6       29.71S WCI  17
WATERTOWN      FOG       23  22  96 SW9       29.68F VSB 1/2 WCI  13
BROOKINGS      CLEAR     20  17  88 S9        29.71F WCI   9
SISSETON         N/A     24  23  96 SW3       29.68F
$$

SDZ017-020-022-023-036>040-048>070-260900-
SOUTHEAST SOUTH DAKOTA

CITY           SKY/WX    TMP DP  RH WIND       PRES   REMARKS
SIOUX FALLS    CLEAR     19  16  88 SW6       29.76S WCI  11
HURON          CLEAR     23  22  96 S5        29.72F WCI  17
CHAMBERLAIN    CLEAR     23  20  89 S5        29.74F WCI  17
MITCHELL       MOCLDY    27  21  78 SW9       29.76S WCI  18
YANKTON        CLEAR     25  18  74 SW9       29.79F WCI  15
$$

ABBREVIATIONS USED IN REMARKS
   TC - TEMPERATURE IN CELSIUS
  WCI - WIND CHILL INDEX
   HX - HEAT INDEX
  VSB - VISIBILITY





USA.gov is the U.S. government's official web portal to all federal, state and local government web resources and services.